CAPE
2714 2323 1866 1485 716 289 102 347 500 223 149 228 289 0 0 0 0 0 0 0 1 8
2572 2291 1561 907 547 336 643 676 576 298 161 236 103 0 0 0 0 0 0 0 0 0
2658 2216 1568 764 517 610 838 1028 720 448 260 344 250 0 0 0 0 0 0 0 2 1
2707 2017 1248 639 488 787 1090 1072 789 596 590 472 346 12 0 0 2 2 0 2 2 2
1939 1092 741 344 551 874 1010 792 738 672 413 126 25 2 1 3 8 2 0 2 9 8
616 417 322 430 721 1054 1097 765 361 77 18 2 3 3 1 0 0 0 0 0 4 9
349 255 255 795 1245 1217 748 104 1 0 0 0 0 0 0 0 0 0 0 0 0 5
40 344 961 1236 1095 192 4 0 0 0 0 0 0 0 0 0 0 0 0 0 0 0
201 466 1056 427 12 1 0 0 0 0 0 0 0 0 0 0 0 0 0 0 0 0
711 564 236 26 1 0 0 0 0 0 0 0 0 0 0 0 0 0 0 0 0 0
802 363 89 5 1 0 0 0 0 0 0 0 0 0 0 0 0 0 0 0 0 0
737 381 72 7 1 0 0 0 0 0 0 0 0 0 0 0 0 0 0 0 0 0
729 271 6 2 1 0 0 0 0 0 0 0 0 0 0 0 0 0 0 0 0 0
275 6 3 2 0 0 0 0 0 0 0 0 0 0 0 0 0 0 0 0 0 0
CIN
-9 -17 -21 -40 -40 -69 -82 -44 -46 -55 -50 -20 -10 0 0 0 0 0 0 0 0 -6
-8 -24 -50 -73 -69 -79 -41 -26 -37 -56 -61 -16 -22 0 0 0 0 0 0 0 0 0
-9 -24 -31 -92 -87 -58 -31 -14 -23 -27 -32 -6 -5 0 0 0 0 0 0 0 0 0
-5 -20 -66 -74 -63 -32 -18 -13 -9 -6 -1 -1 0 -25 0 0 0 0 0 0 0 0
-44 -69 -81 -90 -43 -25 -19 -19 -10 -4 -5 -25 -29 0 0 0 0 0 0 0 0 0
-172 -166 -91 -53 -33 -22 -9 -9 -30 -76 -100 -16 0 0 0 0 0 0 0 0 0 0
-150 -160 -93 -38 -14 -7 -25 -109 0 0 0 0 0 0 0 0 0 0 0 0 0 0
-94 -80 -48 -18 -14 -122 -23 0 0 0 0 0 0 0 0 0 0 0 0 0 0 0
-36 -11 -22 -66 -277 0 0 0 0 0 0 0 0 0 0 0 0 0 0 0 0 0
-40 -8 -67 -199 0 0 0 0 0 0 0 0 0 0 0 0 0 0 0 0 0 0
-10 -26 -92 0 0 0 0 0 0 0 0 0 0 0 0 0 0 0 0 0 0 0
-16 -26 -135 0 0 0 0 0 0 0 0 0 0 0 0 0 0 0 0 0 0 0
-6 -64 0 0 0 0 0 0 0 0 0 0 0 0 0 0 0 0 0 0 0 0
-44 0 0 0 0 0 0 0 0 0 0 0 0 0 0 0 0 0 0 0 0 0
Wind_Speed
8 6 6 8 7 6 5 5 4 3 2 3 3 3 4 4 5 5 5 6 6 5
8 9 8 8 6 6 5 5 4 3 3 2 2 3 3 4 5 5 6 6 7 5
10 9 9 8 7 8 7 5 5 3 1 2 2 1 2 2 5 5 5 5 7 7
9 10 10 9 7 6 5 5 4 2 1 2 2 1 3 4 5 6 6 6 7 8
10 9 9 9 8 6 5 4 4 4 4 5 5 5 5 6 6 6 7 8 8 9
9 10 10 9 7 7 6 5 6 6 6 6 6 6 6 6 6 6 7 8 8 8
4 8 9 8 8 8 7 7 8 7 7 7 7 6 6 6 5 5 6 7 7 8
5 2 8 8 8 10 9 9 8 8 7 6 6 6 5 6 6 6 7 8 8 8
8 5 9 9 10 10 11 9 9 8 6 6 5 8 9 6 6 6 7 8 8 6
10 9 9 10 10 11 10 8 9 7 7 7 8 8 9 8 7 8 8 9 9 9
11 10 11 11 10 9 9 9 7 7 7 8 8 9 9 10 9 8 9 9 10 10
13 12 11 11 10 9 10 8 7 7 8 8 8 8 9 6 8 8 9 7 8 9
12 13 12 11 11 9 8 8 6 8 8 7 8 8 9 4 5 6 5 5 5 6
11 11 12 11 10 9 8 8 9 8 6 6 6 5 4 5 4 4 4 4 4 4
Wind_Direction
167 172 164 162 154 149 150 144 141 110 68 45 93 75 57 56 33 26 17 10 2 337
170 171 168 150 166 152 149 148 153 142 106 50 116 75 65 51 31 20 10 9 4 351
166 169 174 158 167 167 157 166 165 156 124 49 75 51 355 26 40 24 16 4 7 7
166 171 163 170 169 168 156 154 149 143 77 49 24 51 14 17 17 20 22 22 22 21
160 162 164 166 166 159 137 132 135 123 89 64 62 50 35 19 21 23 19 16 12 16
152 156 169 165 158 141 137 128 101 93 82 70 63 62 52 44 37 33 24 14 13 12
191 161 160 154 150 139 123 108 96 79 74 69 65 58 60 50 38 38 41 29 19 26
308 163 137 150 136 118 113 104 103 98 84 73 56 40 47 55 43 41 43 38 22 35
158 189 150 142 125 124 114 116 107 94 89 78 65 58 65 75 74 57 47 42 36 26
145 160 146 130 128 121 122 121 106 99 88 78 75 57 66 67 67 65 57 50 40 33
157 151 141 136 124 130 128 113 97 90 91 95 77 72 81 91 84 72 60 46 37 30
158 154 146 139 142 130 128 123 117 117 117 114 98 76 74 85 86 77 65 53 40 26
154 153 149 140 140 137 133 127 126 118 115 117 111 71 66 63 91 82 76 74 49 51
149 150 142 136 139 145 141 125 127 130 139 134 123 107 77 37 66 39 20 10 10 16